GW7273 Weather Reports


time (UTC)temp
F
wind
direction
speed
knots
gust
knots
rain 1hr
in
rain 24hr
in
rain mn
in
humidity
%
barometer
mb
20260504081541 70 234 3.5 4.3 0.00 0.00 0.00 47 1013.1
20260504044551 58 251 3.5 7.8 0.00 0.00 0.00 55 1012.1
20260504043046 57 196 3.5 10.4 0.00 0.00 0.00 55 1012.1
20260504041541 58 213 4.3 8.7 0.00 0.00 0.00 55 1011.9
20260504040043 57 179 4.3 7.0 0.00 0.00 0.00 55 1011.7
20260504034551 57 201 3.5 6.1 0.00 0.00 0.00 55 1011.8
20260504033051 57 168 4.3 7.0 0.00 0.00 0.00 55 1011.6
20260504031538 57 198 2.6 6.1 0.00 0.00 0.00 54 1011.7
20260504030036 58 129 3.5 7.8 0.00 0.00 0.00 54 1011.8
20260504024545 58 203 4.3 7.8 0.00 0.00 0.00 53 1011.7
20260504023043 58 200 3.5 6.1 0.00 0.00 0.00 53 1011.8
20260504021542 58 196 3.5 6.1 0.00 0.00 0.00 53 1011.8
20260504020041 58 197 2.6 6.1 0.00 0.00 0.00 52 1011.9
20260504014536 59 143 4.3 7.0 0.00 0.00 0.00 52 1011.9
20260504013043 59 221 3.5 7.0 0.00 0.00 0.00 50 1011.8
20260504011545 59 206 2.6 5.2 0.00 0.00 0.00 50 1011.8
20260504010052 60 202 3.5 8.7 0.00 0.00 0.00 49 1011.8
20260504004542 61 216 3.5 7.0 0.00 0.00 0.00 48 1011.9
20260504003038 61 181 5.2 8.7 0.00 0.00 0.00 47 1011.9
20260504001541 61 163 4.3 8.7 0.00 0.00 0.00 47 1011.8
20260504000045 61 181 4.3 7.8 0.00 0.00 0.00 46 1011.9
20260503234544 62 203 3.5 7.8 0.00 0.00 0.00 45 1011.9
20260503233041 62 176 3.5 7.8 0.00 0.00 0.00 44 1012.0
20260503231538 63 133 4.3 7.8 0.00 0.00 0.00 44 1011.9
20260503230040 63 148 3.5 7.8 0.00 0.00 0.00 43 1011.9
20260503224542 64 211 3.5 7.0 0.00 0.00 0.00 42 1012.1
20260503223046 65 168 5.2 9.6 0.00 0.00 0.00 41 1012.0
20260503221544 65 127 4.3 9.6 0.00 0.00 0.00 40 1012.0
20260503220103 65 141 3.5 8.7 0.00 0.00 0.00 39 1012.1
20260503214540 65 134 4.3 7.8 0.00 0.00 0.00 38 1012.2
20260503213042 66 168 2.6 7.0 0.00 0.00 0.00 37 1012.1
20260503211557 66 230 2.6 6.1 0.00 0.00 0.00 37 1012.2
20260503210035 66 206 3.5 6.1 0.00 0.00 0.00 35 1012.2
20260503204542 67 220 2.6 6.1 0.00 0.00 0.00 35 1012.4
20260503203041 67 212 2.6 5.2 0.00 0.00 0.00 35 1012.2
20260503201542 67 180 3.5 5.2 0.00 0.00 0.00 34 1012.2
20260503200042 68 167 2.6 4.3 0.00 0.00 0.00 33 1012.3
20260503194545 68 200 2.6 5.2 0.00 0.00 0.00 33 1012.4
20260503193043 68 158 2.6 4.3 0.00 0.00 0.00 32 1012.3
20260503191542 68 160 2.6 3.5 0.00 0.00 0.00 32 1012.3
20260503190042 69 160 2.6 4.3 0.00 0.00 0.00 32 1012.4
20260503184541 70 167 1.7 3.5 0.00 0.00 0.00 31 1012.5
20260503183043 71 153 1.7 3.5 0.00 0.00 0.00 30 1012.2
20260503181616 72 184 1.7 4.3 0.00 0.00 0.00 28 1012.2
20260503180041 74 134 1.7 5.2 0.00 0.00 0.00 27 1012.0
20260503174542 75 139 1.7 4.3 0.00 0.00 0.00 25 1011.9
20260503173053 76 150 2.6 5.2 0.00 0.00 0.00 24 1012.0
20260503171540 77 162 2.6 6.1 0.00 0.00 0.00 24 1012.0